TimePDT,TemperatureF,Dew PointF,Humidity,Sea Level PressureIn,VisibilityMPH,Wind Direction,Wind SpeedMPH,Gust SpeedMPH,PrecipitationIn,Events,Conditions,WindDirDegrees,DateUTC
12:15 AM,53.6,35.6,51,30.11,10.0,Calm,Calm,-,N/A,,Clear,0,2013-06-10 07:15:00
12:35 AM,51.8,35.6,54,30.10,10.0,Calm,Calm,-,N/A,,Clear,0,2013-06-10 07:35:00
12:55 AM,51.8,37.4,58,30.10,10.0,Calm,Calm,-,N/A,,Clear,0,2013-06-10 07:55:00
1:35 AM,50.0,35.6,58,30.09,10.0,North,3.5,-,N/A,,Clear,10,2013-06-10 08:35:00
1:55 AM,48.2,35.6,62,30.08,10.0,Calm,Calm,-,N/A,,Clear,0,2013-06-10 08:55:00
2:15 AM,44.6,30.2,57,30.08,10.0,NNW,3.5,-,N/A,,Clear,330,2013-06-10 09:15:00
2:35 AM,44.6,30.2,57,30.08,10.0,NNW,4.6,-,N/A,,Clear,340,2013-06-10 09:35:00
2:55 AM,48.2,30.2,50,30.08,10.0,North,3.5,-,N/A,,Clear,360,2013-06-10 09:55:00
3:15 AM,50.0,32.0,50,30.07,10.0,Calm,Calm,-,N/A,,Clear,0,2013-06-10 10:15:00
3:35 AM,46.4,32.0,57,30.07,10.0,Calm,Calm,-,N/A,,Clear,0,2013-06-10 10:35:00
3:55 AM,50.0,33.8,54,30.07,10.0,SE,4.6,-,N/A,,Clear,140,2013-06-10 10:55:00
4:15 AM,50.0,35.6,58,30.06,10.0,WSW,4.6,-,N/A,,Clear,240,2013-06-10 11:15:00
4:35 AM,48.2,33.8,58,30.05,10.0,Calm,Calm,-,N/A,,Clear,0,2013-06-10 11:35:00
4:55 AM,48.2,35.6,62,30.05,10.0,South,6.9,-,N/A,,Clear,190,2013-06-10 11:55:00
5:15 AM,44.6,35.6,71,30.05,10.0,Calm,Calm,-,N/A,,Clear,0,2013-06-10 12:15:00
5:35 AM,42.8,33.8,70,30.05,10.0,Calm,Calm,-,N/A,,Clear,0,2013-06-10 12:35:00
5:55 AM,39.2,32.0,75,30.05,10.0,Calm,Calm,-,N/A,,Clear,0,2013-06-10 12:55:00
6:15 AM,41.0,33.8,76,30.05,10.0,Calm,Calm,-,N/A,,Clear,0,2013-06-10 13:15:00
6:35 AM,44.6,37.4,76,30.05,10.0,Calm,Calm,-,N/A,,Clear,0,2013-06-10 13:35:00
6:55 AM,53.6,41.0,62,30.06,10.0,Calm,Calm,-,N/A,,Clear,0,2013-06-10 13:55:00
7:15 AM,53.6,41.0,62,30.05,10.0,Calm,Calm,-,N/A,,Clear,0,2013-06-10 14:15:00
7:35 AM,59.0,35.6,42,30.05,10.0,Calm,Calm,-,N/A,,Clear,0,2013-06-10 14:35:00
7:55 AM,60.8,32.0,34,30.06,10.0,SSE,3.5,-,N/A,,Clear,160,2013-06-10 14:55:00
8:15 AM,62.6,30.2,30,30.06,10.0,Calm,Calm,-,N/A,,Clear,0,2013-06-10 15:15:00
8:35 AM,64.4,26.6,24,30.06,10.0,Calm,Calm,-,N/A,,Clear,0,2013-06-10 15:35:00
8:55 AM,66.2,21.2,18,30.05,10.0,Calm,Calm,-,N/A,,Clear,0,2013-06-10 15:55:00
9:15 AM,66.2,17.6,15,30.05,10.0,ESE,3.5,-,N/A,,Clear,110,2013-06-10 16:15:00
9:35 AM,68.0,15.8,13,30.04,10.0,ESE,6.9,-,N/A,,Clear,110,2013-06-10 16:35:00
9:55 AM,68.0,15.8,13,30.04,10.0,Calm,Calm,-,N/A,,Clear,0,2013-06-10 16:55:00
10:15 AM,69.8,17.6,14,30.03,10.0,ESE,10.4,20.7,N/A,,Clear,110,2013-06-10 17:15:00
10:35 AM,71.6,17.6,13,30.02,10.0,ESE,12.7,20.7,N/A,,Clear,110,2013-06-10 17:35:00
10:55 AM,71.6,17.6,13,30.02,10.0,East,16.1,24.2,N/A,,Clear,100,2013-06-10 17:55:00
11:15 AM,73.4,19.4,13,30.01,10.0,ESE,15.0,24.2,N/A,,Clear,110,2013-06-10 18:15:00
11:35 AM,73.4,21.2,14,30.01,10.0,ESE,12.7,24.2,N/A,,Clear,110,2013-06-10 18:35:00
11:55 AM,69.8,19.4,15,30.01,10.0,East,8.1,19.6,N/A,,Clear,90,2013-06-10 18:55:00
12:15 PM,68.0,28.4,23,30.01,10.0,South,15.0,25.3,N/A,,Clear,190,2013-06-10 19:15:00
12:35 PM,66.2,30.2,26,30.01,10.0,SSW,17.3,32.2,N/A,,Scattered Clouds,210,2013-06-10 19:35:00
12:55 PM,68.0,28.4,23,30.01,10.0,SSW,15.0,25.3,N/A,,Clear,200,2013-06-10 19:55:00
1:15 PM,68.0,28.4,23,30.01,10.0,SSW,18.4,25.3,N/A,,Clear,200,2013-06-10 20:15:00
1:35 PM,66.2,32.0,28,30.01,10.0,SSW,23.0,29.9,N/A,,Clear,210,2013-06-10 20:35:00
1:55 PM,64.4,32.0,30,30.02,10.0,SSW,27.6,38.0,N/A,,Clear,200,2013-06-10 20:55:00
2:15 PM,62.6,32.0,32,30.02,10.0,SSW,32.2,44.9,N/A,,Clear,210,2013-06-10 21:15:00
2:35 PM,60.8,32.0,34,30.02,10.0,SSW,27.6,43.7,N/A,,Clear,210,2013-06-10 21:35:00
2:55 PM,62.6,30.2,30,30.02,10.0,SSW,24.2,43.7,N/A,,Clear,200,2013-06-10 21:55:00
3:15 PM,64.4,32.0,30,30.04,10.0,WSW,11.5,32.2,N/A,,Scattered Clouds,250,2013-06-10 22:15:00
3:35 PM,66.2,30.2,26,30.03,10.0,SSW,26.5,35.7,N/A,,Scattered Clouds,210,2013-06-10 22:35:00
3:55 PM,64.4,32.0,30,30.04,10.0,SSW,27.6,39.1,N/A,,Clear,200,2013-06-10 22:55:00
4:15 PM,66.2,32.0,28,30.05,10.0,SW,18.4,26.5,N/A,,Clear,230,2013-06-10 23:15:00
4:35 PM,66.2,30.2,26,30.06,10.0,WSW,16.1,26.5,N/A,,Clear,240,2013-06-10 23:35:00
4:55 PM,66.2,32.0,28,30.06,10.0,WSW,17.3,29.9,N/A,,Clear,240,2013-06-10 23:55:00
5:15 PM,66.2,32.0,28,30.06,10.0,West,20.7,29.9,N/A,,Clear,270,2013-06-11 00:15:00
5:35 PM,66.2,32.0,28,30.05,10.0,West,12.7,24.2,N/A,,Clear,270,2013-06-11 00:35:00
5:55 PM,66.2,33.8,30,30.05,10.0,WSW,18.4,33.4,N/A,,Clear,240,2013-06-11 00:55:00
6:15 PM,66.2,33.8,30,30.05,10.0,WSW,15.0,23.0,N/A,,Clear,240,2013-06-11 01:15:00
6:35 PM,66.2,33.8,30,30.06,10.0,West,17.3,23.0,N/A,,Clear,280,2013-06-11 01:35:00
6:55 PM,64.4,33.8,32,30.06,10.0,West,17.3,26.5,N/A,,Clear,270,2013-06-11 01:55:00
7:15 PM,62.6,33.8,34,30.07,10.0,WNW,17.3,28.8,N/A,,Clear,290,2013-06-11 02:15:00
7:35 PM,60.8,35.6,39,30.07,10.0,SW,12.7,21.9,N/A,,Clear,230,2013-06-11 02:35:00
7:55 PM,60.8,37.4,42,30.06,10.0,SSW,15.0,25.3,N/A,,Scattered Clouds,210,2013-06-11 02:55:00
8:15 PM,60.8,35.6,39,30.07,10.0,NW,9.2,20.7,N/A,,Mostly Cloudy,310,2013-06-11 03:15:00
8:35 PM,59.0,37.4,45,30.08,10.0,WNW,18.4,25.3,N/A,,Mostly Cloudy,290,2013-06-11 03:35:00
8:55 PM,59.0,39.2,48,30.10,10.0,WNW,18.4,24.2,N/A,,Overcast,300,2013-06-11 03:55:00
9:15 PM,60.8,35.6,39,30.11,10.0,WNW,16.1,24.2,N/A,,Mostly Cloudy,290,2013-06-11 04:15:00
9:35 PM,60.8,35.6,39,30.12,10.0,WSW,9.2,16.1,N/A,,Mostly Cloudy,250,2013-06-11 04:35:00
9:55 PM,60.8,35.6,39,30.13,10.0,Calm,Calm,-,N/A,,Mostly Cloudy,0,2013-06-11 04:55:00
10:15 PM,59.0,35.6,42,30.13,10.0,SW,9.2,-,N/A,,Scattered Clouds,220,2013-06-11 05:15:00
10:35 PM,57.2,37.4,48,30.14,10.0,WSW,5.8,-,N/A,,Scattered Clouds,240,2013-06-11 05:35:00
10:55 PM,57.2,37.4,48,30.14,10.0,WNW,6.9,-,N/A,,Mostly Cloudy,290,2013-06-11 05:55:00
11:15 PM,59.0,37.4,45,30.14,10.0,West,4.6,-,N/A,,Overcast,280,2013-06-11 06:15:00
11:35 PM,55.4,37.4,51,30.14,10.0,NW,9.2,-,N/A,,Scattered Clouds,320,2013-06-11 06:35:00
11:55 PM,57.2,35.6,44,30.13,10.0,West,12.7,20.7,N/A,,Clear,280,2013-06-11 06:55:00